Location: Dodge City Co - Operative Exchange Grain Elevator Number 8
(38.1218°N, 99.7124°W)
Time: 07:39:35
(UTC+00:00)

Cosmos 1933 - Pass Details

Date: 03 March 2021
Orbit: 547 x 562 km, 82.5° (Epoch: 13 April)

Event Time Altitude Azimuth Distance (km) Brightness Sun altitude
Rises 12:09:50 0° 197° (SSW) 2,703 6.7 -12.1°
Reaches altitude 10° 12:12:01 10° 202° (SSW) 1,816 5.7 -11.7°
Maximum altitude 12:15:55 52° 279° (W) 688 3.4 -10.9°
Drops below altitude 10° 12:19:52 10° 357° (N) 1,838 6.0 -10.1°
Sets 12:22:06 0° 2° (N) 2,739 6.9 -9.7°
